User: anonymous
Location: Mt. Chestnut Observatory
(40.9038°N, 79.9956°W)
Time: 05:46:49
(UTC-04:00)
Language:

Cosmos 2034 Rocket - Orbit

View from above orbital plane
View from above orbital plane
View from above satellite
View from above satellite

Ground track
Ground track

The orbit data is extracted from the following two-line orbital elements,

1 20150U 89059B   14292.54315986 -.00000037  00000-0 -54670-4 0   593
2 20150 082.9376 094.9036 0030154 115.7253 306.6926 13.75582601266805
Epoch (UTC): 19 October 2014 13:02:09
Eccentricity: 0.0030154
inclination: 82.9376°
perigee height: 957 km
apogee height: 1002 km
right ascension of ascending node: 94.9036°
argument of perigee: 115.7253°
revolutions per day: 13.75582601
mean anomaly at epoch: 306.6926°
orbit number at epoch: 26680

The dashed part of the orbit path shows where the satellite is in the earth's shadow,  

DLR